Location: Palomar Mountain Lodge
(33.3110°N, 116.8495°W)
Time: 09:23:50
(UTC-08:00)

ARIANE 6 FM1 Upper Stage - Visible Passes

Search period start: 14 February 2026 00:00
Search period end: 24 February 2026 00:00
Orbit: 522 x 609 km, 62.0° (Epoch: 13 February)

Date Brightness Start Highest point End Pass type
(mag) Time Alt. Az. Time Alt. Az. Time Alt. Az.
15 Feb 4.9 19:21:35 10° N 19:22:15 14° N 19:22:15 14° N visible
16 Feb 4.2 19:21:15 10° NNW 19:22:58 23° N 19:22:58 23° N visible
17 Feb 3.3 19:21:04 10° NNW 19:23:53 44° NNW 19:23:53 44° NNW visible
18 Feb 2.6 19:21:01 10° NW 19:24:57 71° WSW 19:25:01 71° SW visible
19 Feb 3.7 19:21:06 10° NW 19:24:50 42° WSW 19:26:31 27° S visible
20 Feb 4.6 19:21:22 10° WNW 19:24:41 26° WSW 19:28:03 10° S visible
21 Feb 5.4 19:21:57 10° WNW 19:24:31 17° WSW 19:27:05 10° SSW visible
22 Feb 6.0 19:23:45 10° WSW 19:24:17 10° WSW 19:24:49 10° WSW visible
